ZKJAT NZAA-NZRO

Flight info

Callsign ZKJAT
Flight time 0h 27m
Altitude 15000
Route TULMI H372 ESKER
Aircraft C750/M-SBDE3FGHRWXY/S

Departure

Time 2026-04-16 05:16
Airport Auckland International Airport (NZAA)

Arrival

Time 2026-04-16 05:44
Airport Rotorua Regional Airport (NZRO)
Time Latitude Longitude Altitude Speed Heading
2026-04-16 04:48 -37.00307 174.80488 22 ft 0 kts 181°
2026-04-16 05:00 -37.00303 174.80488 22 ft 2 kts 186°
2026-04-16 05:00 -37.00287 174.80489 22 ft 2 kts 184°
2026-04-16 05:00 -37.00271 174.80491 22 ft 2 kts 190°
2026-04-16 05:00 -37.00260 174.80497 23 ft 0 kts 238°
2026-04-16 05:07 -37.00260 174.80496 23 ft 0 kts 238°
2026-04-16 05:07 -37.00261 174.80494 22 ft 0 kts 238°
2026-04-16 05:07 -37.00262 174.80492 24 ft 0 kts 237°
2026-04-16 05:07 -37.00264 174.80488 25 ft 0 kts 236°
2026-04-16 05:08 -37.00266 174.80486 26 ft 0 kts 236°
2026-04-16 05:08 -37.00267 174.80484 22 ft 0 kts 235°
2026-04-16 05:11 -37.00267 174.80483 22 ft 0 kts 235°
2026-04-16 05:11 -37.00269 174.80465 23 ft 3 kts 282°
2026-04-16 05:11 -37.00267 174.80430 22 ft 4 kts 249°
2026-04-16 05:11 -37.00288 174.80424 22 ft 4 kts 161°
2026-04-16 05:12 -37.00349 174.80446 22 ft 12 kts 174°
2026-04-16 05:12 -37.00416 174.80406 22 ft 11 kts 236°
2026-04-16 05:12 -37.00459 174.80354 22 ft 7 kts 161°
2026-04-16 05:12 -37.00506 174.80382 24 ft 8 kts 157°
2026-04-16 05:13 -37.00551 174.80429 24 ft 9 kts 130°
2026-04-16 05:13 -37.00589 174.80483 22 ft 0 kts 134°
2026-04-16 05:14 -37.00590 174.80485 22 ft 3 kts 133°
2026-04-16 05:15 -37.00629 174.80534 23 ft 11 kts 149°
2026-04-16 05:15 -37.00686 174.80506 22 ft 8 kts 251°
2026-04-16 05:15 -37.00687 174.80500 22 ft 0 kts 252°
2026-04-16 05:15 -37.00710 174.80416 24 ft 27 kts 251°
2026-04-16 05:16 -37.00869 174.79841 23 ft 115 kts 251°
2026-04-16 05:16 -37.01167 174.78744 359 ft 141 kts 248°
2026-04-16 05:16 -37.01462 174.77601 1164 ft 137 kts 249°
2026-04-16 05:16 -37.01765 174.76467 1927 ft 138 kts 249°
2026-04-16 05:17 -37.02090 174.75320 2845 ft 148 kts 248°
2026-04-16 05:17 -37.02470 174.74011 3564 ft 172 kts 248°
2026-04-16 05:17 -37.02899 174.72482 4297 ft 199 kts 249°
2026-04-16 05:17 -37.03375 174.70758 5009 ft 226 kts 249°
2026-04-16 05:18 -37.03904 174.68829 5949 ft 237 kts 250°
2026-04-16 05:18 -37.04481 174.66870 7186 ft 239 kts 245°
2026-04-16 05:18 -37.05482 174.65214 8350 ft 246 kts 226°
2026-04-16 05:18 -37.06934 174.64026 9638 ft 256 kts 209°
2026-04-16 05:19 -37.08694 174.63359 10493 ft 273 kts 201°
2026-04-16 05:19 -37.10591 174.62723 10884 ft 299 kts 201°
2026-04-16 05:19 -37.12692 174.62002 11174 ft 325 kts 201°
2026-04-16 05:19 -37.14909 174.61246 12008 ft 329 kts 201°
2026-04-16 05:20 -37.17105 174.60501 12903 ft 332 kts 201°
2026-04-16 05:20 -37.19346 174.59727 13767 ft 336 kts 201°
2026-04-16 05:20 -37.21628 174.58983 14477 ft 343 kts 198°
2026-04-16 05:20 -37.24073 174.58749 14974 ft 364 kts 186°
2026-04-16 05:21 -37.26692 174.59208 15010 ft 395 kts 174°
2026-04-16 05:21 -37.29425 174.60157 15009 ft 419 kts 168°
2026-04-16 05:21 -37.32167 174.61704 15004 ft 443 kts 158°
2026-04-16 05:21 -37.34763 174.63864 15001 ft 460 kts 148°
2026-04-16 05:22 -37.37037 174.66549 15007 ft 437 kts 138°
2026-04-16 05:22 -37.38869 174.69549 14996 ft 433 kts 129°
2026-04-16 05:22 -37.40311 174.72920 14998 ft 438 kts 118°
2026-04-16 05:22 -37.41292 174.76507 15002 ft 439 kts 108°
2026-04-16 05:23 -37.41851 174.80279 15004 ft 436 kts 102°
2026-04-16 05:23 -37.42322 174.84017 14999 ft 428 kts 102°
2026-04-16 05:23 -37.42808 174.87704 14992 ft 422 kts 103°
2026-04-16 05:23 -37.43257 174.91359 14996 ft 423 kts 102°
2026-04-16 05:24 -37.43676 174.95043 15000 ft 425 kts 101°
2026-04-16 05:24 -37.44113 174.98759 15000 ft 434 kts 102°
2026-04-16 05:24 -37.44581 175.02559 15001 ft 444 kts 102°
2026-04-16 05:24 -37.45044 175.06382 15012 ft 453 kts 101°
2026-04-16 05:25 -37.45338 175.10377 14984 ft 462 kts 93°
2026-04-16 05:25 -37.45229 175.14443 14998 ft 467 kts 89°
2026-04-16 05:25 -37.45124 175.18572 14995 ft 472 kts 90°
2026-04-16 05:25 -37.45059 175.22719 15007 ft 476 kts 91°
2026-04-16 05:26 -37.44979 175.26843 15000 ft 480 kts 90°
2026-04-16 05:26 -37.44897 175.31056 14908 ft 482 kts 92°
2026-04-16 05:26 -37.45255 175.35250 14897 ft 478 kts 103°
2026-04-16 05:26 -37.46109 175.39261 14902 ft 472 kts 113°
2026-04-16 05:27 -37.47425 175.43023 14900 ft 467 kts 122°
2026-04-16 05:27 -37.49158 175.46454 14893 ft 459 kts 131°
2026-04-16 05:27 -37.51225 175.49482 14899 ft 453 kts 139°
2026-04-16 05:27 -37.53383 175.52389 14906 ft 453 kts 139°
2026-04-16 05:28 -37.55490 175.55272 14901 ft 453 kts 138°
2026-04-16 05:28 -37.57621 175.58190 14895 ft 452 kts 139°
2026-04-16 05:28 -37.59760 175.61091 14903 ft 452 kts 139°
2026-04-16 05:28 -37.61912 175.64010 14899 ft 452 kts 139°
2026-04-16 05:29 -37.64042 175.66922 14921 ft 453 kts 139°
2026-04-16 05:29 -37.66187 175.69858 14901 ft 453 kts 139°
2026-04-16 05:29 -37.68335 175.72788 14903 ft 459 kts 139°
2026-04-16 05:29 -37.70507 175.75752 14899 ft 459 kts 139°
2026-04-16 05:30 -37.72634 175.78677 14898 ft 456 kts 139°
2026-04-16 05:30 -37.74788 175.81639 14889 ft 454 kts 139°
2026-04-16 05:30 -37.75190 175.82191 14888 ft 453 kts 139°
2026-04-16 05:31 -37.76576 175.84275 14869 ft 464 kts 133°
2026-04-16 05:31 -37.78276 175.87694 14875 ft 462 kts 123°
2026-04-16 05:31 -37.79687 175.91353 14868 ft 452 kts 120°
2026-04-16 05:31 -37.81034 175.94847 14872 ft 438 kts 121°
2026-04-16 05:32 -37.82369 175.98247 14802 ft 428 kts 121°
2026-04-16 05:32 -37.83669 176.01587 14758 ft 421 kts 121°
2026-04-16 05:32 -37.84972 176.04975 14334 ft 434 kts 121°
2026-04-16 05:32 -37.86313 176.08463 13508 ft 445 kts 121°
2026-04-16 05:33 -37.87690 176.12038 12674 ft 352 kts 121°
2026-04-16 05:33 -37.88780 176.14760 12173 ft 343 kts 124°
2026-04-16 05:33 -37.89480 176.16568 11922 ft 335 kts 122°
2026-04-16 05:34 -37.90437 176.19156 11380 ft 332 kts 121°
2026-04-16 05:34 -37.91378 176.21759 10945 ft 325 kts 121°
2026-04-16 05:34 -37.92047 176.23581 10658 ft 322 kts 121°
2026-04-16 05:34 -37.92786 176.25573 10666 ft 302 kts 123°
2026-04-16 05:35 -37.93451 176.28010 10694 ft 295 kts 101°
2026-04-16 05:35 -37.93108 176.30516 10527 ft 289 kts 63°
2026-04-16 05:35 -37.92147 176.32690 10223 ft 283 kts 60°
2026-04-16 05:35 -37.91220 176.34978 9067 ft 295 kts 63°
2026-04-16 05:36 -37.90833 176.37459 7861 ft 279 kts 97°
2026-04-16 05:36 -37.91347 176.39676 6861 ft 250 kts 126°
2026-04-16 05:36 -37.92501 176.41086 5780 ft 216 kts 165°
2026-04-16 05:36 -37.93859 176.41343 4796 ft 188 kts 188°
2026-04-16 05:37 -37.95107 176.41167 3643 ft 176 kts 200°
2026-04-16 05:37 -37.96181 176.40659 2901 ft 156 kts 212°
2026-04-16 05:37 -37.96918 176.40096 2769 ft 119 kts 220°
2026-04-16 05:39 -37.97190 176.39875 2812 ft 108 kts 220°
2026-04-16 05:39 -37.97786 176.39403 2800 ft 99 kts 220°
2026-04-16 05:39 -37.98385 176.38925 2673 ft 102 kts 219°
2026-04-16 05:39 -37.98987 176.38461 2646 ft 104 kts 219°
2026-04-16 05:40 -37.99622 176.37984 2604 ft 108 kts 219°
2026-04-16 05:40 -38.00315 176.37559 2545 ft 114 kts 212°
2026-04-16 05:40 -38.01074 176.37200 2600 ft 118 kts 207°
2026-04-16 05:40 -38.01837 176.36897 2611 ft 110 kts 207°
2026-04-16 05:41 -38.02530 176.36593 2573 ft 103 kts 211°
2026-04-16 05:41 -38.03173 176.36201 2559 ft 103 kts 215°
2026-04-16 05:41 -38.03799 176.35772 2565 ft 103 kts 215°
2026-04-16 05:41 -38.04459 176.35346 2455 ft 108 kts 214°
2026-04-16 05:42 -38.05162 176.34950 2310 ft 113 kts 213°
2026-04-16 05:42 -38.05885 176.34511 2116 ft 116 kts 214°
2026-04-16 05:42 -38.06615 176.34067 1871 ft 118 kts 213°
2026-04-16 05:42 -38.07349 176.33622 1681 ft 117 kts 213°
2026-04-16 05:43 -38.08082 176.33205 1541 ft 115 kts 212°
2026-04-16 05:43 -38.08796 176.32781 1343 ft 112 kts 212°
2026-04-16 05:43 -38.09510 176.32353 1115 ft 114 kts 209°
2026-04-16 05:43 -38.10192 176.31947 983 ft 100 kts 211°
2026-04-16 05:44 -38.10754 176.31613 946 ft 71 kts 203°
2026-04-16 05:44 -38.11059 176.31438 945 ft 27 kts 201°
2026-04-16 05:44 -38.11149 176.31409 942 ft 9 kts 187°
2026-04-16 05:44 -38.11147 176.31385 942 ft 5 kts 354°
2026-04-16 05:45 -38.11095 176.31414 944 ft 11 kts 26°
2026-04-16 05:45 -38.11039 176.31461 946 ft 8 kts 65°
2026-04-16 05:45 -38.11052 176.31527 947 ft 10 kts 119°
2026-04-16 05:45 -38.11074 176.31594 944 ft 7 kts 109°
2026-04-16 05:46 -38.11067 176.31649 944 ft 5 kts 63°
2026-04-16 05:46 -38.11064 176.31670 944 ft 0 kts 128°
2026-04-16 05:46 -38.11067 176.31668 944 ft 1 kts 183°
2026-04-16 05:46 -38.11074 176.31663 944 ft 0 kts 206°
2026-04-16 05:47 -38.11076 176.31662 944 ft 0 kts 206°